TimeEST,TemperatureF,Dew PointF,Humidity,Sea Level PressureIn,VisibilityMPH,Wind Direction,Wind SpeedMPH,Gust SpeedMPH,PrecipitationIn,Events,Conditions,WindDirDegrees,DateUTC
12:56 AM,28.9,27.0,92,30.39,9.0,North,3.5,-,N/A,,Clear,10,2013-01-08 05:56:00
1:56 AM,28.0,26.1,92,30.38,9.0,NNE,3.5,-,N/A,,Clear,30,2013-01-08 06:56:00
2:56 AM,28.0,26.1,92,30.39,9.0,Calm,Calm,-,N/A,,Clear,0,2013-01-08 07:56:00
3:56 AM,28.9,27.0,92,30.38,10.0,North,4.6,-,N/A,,Clear,10,2013-01-08 08:56:00
4:56 AM,32.0,28.9,88,30.38,10.0,North,3.5,-,N/A,,Mostly Cloudy,360,2013-01-08 09:56:00
5:56 AM,32.0,30.0,92,30.39,10.0,North,3.5,-,N/A,,Mostly Cloudy,360,2013-01-08 10:56:00
6:56 AM,33.1,30.0,89,30.40,10.0,Calm,Calm,-,N/A,,Mostly Cloudy,0,2013-01-08 11:56:00
7:07 AM,33.8,30.2,87,30.40,10.0,Calm,Calm,-,N/A,,Overcast,0,2013-01-08 12:07:00
7:56 AM,34.0,30.9,89,30.42,10.0,North,4.6,-,N/A,,Mostly Cloudy,360,2013-01-08 12:56:00
8:08 AM,33.8,30.2,87,30.41,10.0,NNE,4.6,-,N/A,,Scattered Clouds,20,2013-01-08 13:08:00
8:56 AM,37.0,32.0,82,30.44,10.0,North,5.8,-,N/A,,Overcast,360,2013-01-08 13:56:00
9:56 AM,41.0,34.0,76,30.46,10.0,NNE,5.8,-,N/A,,Mostly Cloudy,20,2013-01-08 14:56:00
11:56 AM,48.9,35.1,59,30.44,10.0,North,6.9,-,N/A,,Overcast,360,2013-01-08 16:56:00
12:56 PM,51.1,36.0,56,30.41,10.0,NNE,5.8,-,N/A,,Overcast,30,2013-01-08 17:56:00
1:05 PM,50.0,35.6,58,30.39,10.0,NE,4.6,-,N/A,,Overcast,50,2013-01-08 18:05:00
1:56 PM,51.1,36.0,56,30.38,10.0,NNE,5.8,-,N/A,,Overcast,20,2013-01-08 18:56:00
2:56 PM,53.1,37.9,57,30.37,10.0,NNE,4.6,-,N/A,,Overcast,30,2013-01-08 19:56:00
3:39 PM,53.6,37.4,54,30.36,10.0,North,5.8,-,N/A,,Overcast,10,2013-01-08 20:39:00
3:56 PM,53.1,39.0,59,30.37,10.0,NE,4.6,-,N/A,,Overcast,40,2013-01-08 20:56:00
4:06 PM,53.6,39.2,58,30.36,10.0,Calm,Calm,-,N/A,,Overcast,0,2013-01-08 21:06:00
4:25 PM,53.6,39.2,58,30.36,10.0,NE,5.8,-,N/A,,Overcast,50,2013-01-08 21:25:00
4:56 PM,52.0,39.9,63,30.37,10.0,ENE,3.5,-,N/A,,Overcast,60,2013-01-08 21:56:00
5:56 PM,50.0,39.9,68,30.39,10.0,North,3.5,-,N/A,,Overcast,10,2013-01-08 22:56:00
6:42 PM,48.2,39.2,71,30.38,10.0,Calm,Calm,-,N/A,,Mostly Cloudy,0,2013-01-08 23:42:00
6:56 PM,48.9,39.9,71,30.39,10.0,Calm,Calm,-,N/A,,Overcast,0,2013-01-08 23:56:00
7:56 PM,50.0,39.9,68,30.39,10.0,East,4.6,-,N/A,,Overcast,80,2013-01-09 00:56:00
8:56 PM,50.0,39.9,68,30.40,10.0,Calm,Calm,-,N/A,,Overcast,0,2013-01-09 01:56:00
9:56 PM,48.0,39.9,74,30.40,10.0,Calm,Calm,-,N/A,,Overcast,0,2013-01-09 02:56:00
10:53 PM,48.2,39.2,71,30.40,10.0,North,4.6,-,N/A,,Overcast,360,2013-01-09 03:53:00
10:56 PM,48.0,39.9,74,30.40,10.0,North,4.6,-,N/A,,Overcast,10,2013-01-09 03:56:00
11:48 PM,46.4,39.2,76,30.38,10.0,NE,3.5,-,N/A,,Partly Cloudy,40,2013-01-09 04:48:00
11:56 PM,46.9,39.9,77,30.39,10.0,Calm,Calm,-,N/A,,Partly Cloudy,0,2013-01-09 04:56:00